Location: ??
(35.5653°N, 139.6194°E)
Time: 20:33:00
(UTC+00:00)

Delta 2 Rocket - Pass Details

Date: 27 February 2020
Orbit: 416 x 808 km, 35.6° (Epoch: 09 April)

Event Time Altitude Azimuth Distance (km) Brightness Sun altitude
Exits shadow 19:02:08 13° 144° (SE) 1,482 5.8 -27.6°
Drops below altitude 10° 19:03:35 10° 121° (ESE) 1,638 6.3 -27.3°
Sets 19:06:33 0° 93° (E) 2,448 7.9 -26.7°
